Location: Haram ta Haram Freeway
(35.0583°N, 51.4202°E)
Time: 22:32:53
(UTC+04:30)

JUGNU - Visible Passes

Search period start: 03 July 2020 00:00
Search period end: 13 July 2020 00:00
Orbit: 836 x 864 km, 20.0° (Epoch: 02 July)

Date Brightness Start Highest point End Pass type
(mag) Time Alt. Az. Time Alt. Az. Time Alt. Az.
04 Jul ? 21:57:45 10° SSW 21:59:24 13° S 21:59:24 13° S visible
05 Jul ? 21:42:15 10° SSW 21:45:25 15° S 21:45:34 15° SSE visible
06 Jul ? 21:26:46 10° SSW 21:30:09 15° S 21:31:37 14° SSE visible
07 Jul ? 21:11:21 10° SSW 21:14:52 16° S 21:17:35 12° SE visible
07 Jul ? 22:59:14 10° SW 22:59:26 11° SW 22:59:26 11° SW visible
08 Jul ? 20:55:57 10° SSW 20:59:36 17° S 21:03:15 10° SE visible
08 Jul ? 22:44:00 10° SW 22:45:17 14° SSW 22:45:17 14° SSW visible
09 Jul ? 22:28:48 10° SW 22:31:05 16° SSW 22:31:05 16° SSW visible
10 Jul ? 22:13:37 10° SW 22:16:50 17° SSW 22:16:50 17° SSW visible
11 Jul ? 21:58:27 10° SW 22:02:05 16° S 22:02:31 16° S visible
12 Jul ? 21:43:19 10° SW 21:46:49 16° S 21:48:12 15° S visible
